Total_Precipitation_Accumulation
3.33 3.45 3.45 3.46 3.20 3.16 3.14 3.02 2.83 2.89 2.83 2.56 2.26 2.21 2.27 2.21 2.33 2.60 2.72 2.87 2.91 3.27 3.81 4.12 4.12 4.13 4.35 4.46 4.22 4.02 3.84 3.69 3.52 3.12 2.78 2.60 2.49 2.43 2.22 2.12 2.05 1.97 2.02
3.61 3.71 3.68 3.66 3.56 3.43 3.46 3.28 3.07 3.24 3.14 3.02 2.78 2.65 2.53 2.58 2.56 2.64 2.86 3.04 2.97 2.99 3.37 3.79 4.04 4.25 4.57 4.67 4.49 4.05 3.80 3.81 3.89 3.64 3.28 2.97 2.70 2.59 2.46 2.33 2.19 2.07 2.02
3.60 3.80 3.96 3.88 3.88 3.77 3.73 3.65 3.60 3.68 3.38 3.21 3.02 2.88 2.83 2.93 2.85 2.76 2.92 3.09 3.03 3.10 3.17 3.26 3.46 3.74 4.16 4.50 4.60 4.42 4.05 3.83 3.88 3.89 3.71 3.38 3.04 2.85 2.71 2.55 2.46 2.39 2.29
3.58 3.95 4.09 4.11 4.21 4.11 4.17 4.23 4.13 3.99 3.88 3.60 3.36 3.01 2.88 3.03 3.01 3.01 3.04 3.05 3.22 3.13 3.17 3.06 3.12 3.22 3.59 4.12 4.35 4.57 4.57 4.40 4.12 3.92 3.82 3.62 3.40 3.18 2.96 2.72 2.59 2.57 2.52
4.12 4.29 4.40 4.50 4.58 4.65 4.68 4.45 4.63 4.41 4.31 4.09 3.60 3.32 3.04 2.94 2.93 2.86 2.98 2.89 3.02 3.12 3.23 3.15 3.12 3.15 3.37 3.94 4.25 4.58 4.74 4.75 4.64 4.27 4.00 3.79 3.71 3.53 3.28 3.04 2.82 2.66 2.60
4.85 5.00 4.89 4.99 5.08 5.18 5.04 5.02 5.13 4.92 4.56 4.47 3.96 3.69 3.36 3.03 2.99 2.98 2.96 3.06 2.94 2.76 2.98 3.15 3.31 3.13 3.34 3.59 3.92 4.37 4.60 4.78 4.81 4.57 4.43 4.30 4.05 3.79 3.41 3.07 2.83 2.70 2.63
5.84 5.92 5.63 5.68 5.62 5.52 5.29 5.27 5.19 4.96 4.65 4.61 4.47 4.00 3.31 2.88 2.82 2.71 2.69 2.92 2.87 2.77 2.88 3.05 3.12 3.01 2.88 3.05 3.22 3.65 4.19 4.64 4.98 4.87 4.67 4.45 4.12 3.88 3.60 3.29 3.03 2.86 2.71
6.71 6.78 6.77 6.51 6.33 6.10 5.62 5.26 5.12 4.86 4.47 4.60 4.64 4.61 3.87 3.33 2.73 2.22 2.31 2.36 2.42 2.68 2.66 2.65 2.82 2.95 2.82 2.84 2.66 2.87 3.24 3.79 4.42 4.74 4.75 4.48 4.22 4.02 3.82 3.61 3.40 3.21 2.98
6.71 6.97 7.06 6.83 6.48 5.92 5.35 5.24 5.22 5.04 4.73 4.63 4.54 4.79 4.21 3.61 3.08 2.48 2.14 2.05 2.18 2.35 2.40 2.43 2.47 2.58 2.55 2.67 2.62 2.63 2.78 3.02 3.63 4.18 4.36 4.11 3.92 3.80 3.76 3.67 3.59 3.46 3.32
6.50 6.46 6.38 6.03 5.68 5.30 5.00 4.86 4.96 4.85 4.80 4.55 4.46 4.14 3.85 3.54 3.30 2.85 2.33 2.07 2.14 2.20 2.20 2.14 2.18 2.41 2.51 2.58 2.62 2.52 2.42 2.56 3.00 3.49 3.80 3.79 3.66 3.59 3.62 3.60 3.56 3.59 3.63
5.72 5.28 4.99 4.83 4.78 4.64 4.45 4.32 4.37 4.27 4.04 3.94 3.92 3.87 3.79 3.50 3.15 2.95 2.64 2.39 2.33 2.12 2.10 2.17 2.24 2.38 2.55 2.61 2.66 2.59 2.47 2.28 2.43 2.73 3.04 3.24 3.40 3.45 3.51 3.69 3.76 3.77 3.78
4.87 4.33 4.08 3.98 3.90 3.75 3.56 3.47 3.48 3.48 3.54 3.59 3.66 3.65 3.59 3.50 3.26 3.26 3.04 2.74 2.59 2.39 2.28 2.26 2.29 2.40 2.62 2.75 2.69 2.91 2.52 2.24 2.21 2.35 2.54 2.68 2.90 3.02 3.15 3.32 3.58 3.72 3.85
4.38 3.90 3.50 3.34 3.07 2.91 2.84 2.91 2.92 2.89 3.01 3.11 3.21 3.31 3.33 3.22 3.11 3.19 3.30 3.03 2.74 2.53 2.45 2.34 2.30 2.41 2.45 2.70 2.98 3.10 2.62 2.37 2.20 2.13 2.22 2.33 2.48 2.61 2.66 2.71 2.97 3.24 3.49
3.77 3.49 3.10 2.76 2.52 2.38 2.30 2.49 2.53 2.52 2.61 2.71 2.77 3.03 3.01 2.90 2.99 3.07 3.22 3.36 3.24 2.83 2.54 2.38 2.33 2.36 2.39 2.47 2.77 2.89 2.48 2.42 2.15 2.03 2.02 2.13 2.24 2.37 2.44 2.46 2.66 2.86 2.98
2.91 2.78 2.59 2.42 2.27 2.21 2.21 2.29 2.29 2.34 2.49 2.54 2.56 2.71 2.83 2.80 2.85 2.86 2.97 3.13 3.24 3.03 2.71 2.49 2.39 2.34 2.38 2.44 2.65 2.27 2.21 2.39 2.18 2.03 1.93 1.90 1.91 2.04 2.15 2.15 2.14 2.21 2.30
2.25 2.26 2.20 2.21 2.15 2.09 2.13 2.20 2.08 2.11 2.23 2.25 2.26 2.37 2.46 2.49 2.63 2.66 2.75 2.87 2.96 2.93 2.75 2.44 2.38 2.35 2.31 2.12 2.33 2.04 2.10 2.26 2.06 1.94 1.85 1.83 1.79 1.82 1.88 1.94 1.94 1.91 1.92
1.92 1.93 1.95 1.97 1.99 1.98 2.01 2.00 1.84 1.88 1.94 2.09 2.20 2.27 2.31 2.35 2.46 2.42 2.44 2.47 2.59 2.78 2.88 2.68 2.49 2.44 2.42 2.31 2.15 1.95 1.83 1.83 1.76 1.85 1.81 1.79 1.72 1.69 1.74 1.75 1.70 1.66 1.63
1.78 1.80 1.81 1.79 1.84 1.94 2.01 1.92 1.76 1.73 1.86 1.99 2.13 2.29 2.26 2.19 2.22 2.25 2.32 2.30 2.32 2.50 2.67 2.62 2.47 2.33 2.33 2.29 2.21 2.10 1.75 1.59 1.57 1.62 1.55 1.50 1.52 1.54 1.50 1.52 1.52 1.49 1.45
1.77 1.75 1.71 1.72 1.77 1.82 1.83 1.77 1.69 1.66 1.73 1.81 1.92 1.97 2.01 2.03 1.97 1.96 2.01 2.07 2.06 2.10 2.35 2.39 2.28 2.22 2.15 2.11 2.17 2.10 1.89 1.90 1.52 1.45 1.37 1.30 1.28 1.28 1.27 1.26 1.28 1.34 1.35
1.70 1.74 1.72 1.70 1.67 1.60 1.48 1.43 1.43 1.47 1.52 1.52 1.58 1.60 1.68 1.81 1.84 1.84 1.79 1.87 1.94 2.10 2.21 2.27 2.16 2.09 2.10 1.98 2.06 2.06 2.02 1.88 1.66 1.37 1.37 1.22 1.14 1.09 1.08 1.09 1.09 1.10 1.15
1.48 1.55 1.61 1.55 1.42 1.28 1.10 1.12 1.20 1.23 1.33 1.35 1.36 1.29 1.29 1.52 1.68 1.63 1.47 1.65 1.87 2.05 2.13 2.16 2.05 1.94 1.87 1.97 1.93 1.86 1.89 1.89 1.80 1.61 1.59 1.37 1.26 1.17 1.17 1.16 1.10 1.07 1.08
1.62 1.57 1.55 1.47 1.33 1.06 1.05 1.02 1.13 1.29 1.40 1.37 1.39 1.37 1.26 1.31 1.40 1.35 1.26 1.39 1.65 1.76 1.89 2.06 2.05 1.95 1.86 1.87 1.91 1.91 1.97 2.06 2.01 1.73 1.77 1.59 1.45 1.43 1.31 1.21 1.18 1.10 1.08
1.73 1.66 1.54 1.49 1.43 1.33 1.20 1.01 1.03 1.19 1.31 1.33 1.35 1.38 1.21 1.12 1.31 1.31 1.31 1.29 1.36 1.38 1.51 1.86 2.07 1.95 1.91 1.96 2.10 2.05 2.15 2.16 2.00 1.88 2.02 1.92 1.62 1.48 1.19 1.11 1.20 1.07 1.06
1.72 1.68 1.59 1.48 1.39 1.16 1.02 0.88 0.90 1.03 1.25 1.30 1.28 1.34 1.40 1.30 1.23 1.28 1.28 1.29 1.34 1.37 1.33 1.40 1.66 1.77 1.81 1.97 2.12 2.19 2.31 2.23 2.09 2.01 2.13 2.15 1.76 1.61 1.31 1.30 1.23 1.07 1.03
1.64 1.57 1.50 1.43 1.36 1.18 0.97 0.83 0.88 1.03 1.23 1.26 1.23 1.23 1.32 1.33 1.31 1.26 1.29 1.41 1.47 1.46 1.26 1.26 1.33 1.47 1.56 1.72 1.87 2.01 2.28 2.47 2.27 1.98 1.98 2.15 1.87 1.74 1.57 1.45 1.28 1.17 1.06
1.55 1.46 1.36 1.35 1.33 1.30 1.15 0.96 0.94 1.02 1.18 1.23 1.31 1.30 1.25 1.26 1.29 1.24 1.34 1.52 1.53 1.49 1.37 1.34 1.46 1.56 1.56 1.67 1.77 1.92 2.22 2.35 2.20 2.07 1.84 1.97 1.90 1.96 1.93 1.56 1.38 1.32 1.22